Hourly Weather Kozinowa

Today, 22 October, Thursday

Time Temperature Precipitation Wind Pressure Humidity
00:00 +7°C° 0 mm 2 mps 705 mmHg 84%
01:00 +7°C° 0 mm 2 mps 705 mmHg 84%
02:00 +7°C° 0 mm 2 mps 705 mmHg 83%
03:00 +7°C° 0 mm 2 mps 705 mmHg 81%
04:00 +7°C° 0 mm 2 mps 705 mmHg 80%
05:00 +8°C° 0 mm 2 mps 705 mmHg 79%
06:00 +8°C° 0 mm 2 mps 705 mmHg 78%
07:00 +8°C° 0 mm 2 mps 706 mmHg 77%
08:00 +11°C° 0 mm 1 mps 706 mmHg 72%
09:00 +14°C° 0 mm 1 mps 707 mmHg 68%
10:00 +16°C° 0 mm 1 mps 707 mmHg 63%
11:00 +18°C° 0 mm 1 mps 707 mmHg 62%
12:00 +19°C° 0 mm 1 mps 707 mmHg 60%
13:00 +19°C° 0 mm 1 mps 707 mmHg 59%
14:00 +18°C° 0 mm 1 mps 707 mmHg 66%
15:00 +15°C° 0 mm 1 mps 706 mmHg 74%
16:00 +14°C° 0 mm 1 mps 706 mmHg 82%
17:00 +13°C° 0 mm 1 mps 706 mmHg 84%
18:00 +12°C° 0 mm 1 mps 706 mmHg 87%
19:00 +11°C° 0 mm 1 mps 706 mmHg 90%
20:00 +10°C° 0 mm 1 mps 706 mmHg 89%
21:00 +10°C° 0 mm 1 mps 705 mmHg 89%
22:00 +10°C° 0 mm 1 mps 705 mmHg 88%
23:00 +9°C° 0 mm 1 mps 705 mmHg 88%

Tomorrow, 23 October, Friday

Time Temperature Precipitation Wind Pressure Humidity
00:00 +9°C° 0 mm 1 mps 705 mmHg 87%
01:00 +9°C° 0 mm 1 mps 705 mmHg 86%
02:00 +9°C° 0 mm 1 mps 705 mmHg 86%
03:00 +9°C° 0 mm 1 mps 704 mmHg 86%
04:00 +9°C° 0 mm 1 mps 704 mmHg 86%
05:00 +9°C° 0 mm 1 mps 704 mmHg 85%
06:00 +8°C° 0 mm 1 mps 704 mmHg 85%
07:00 +8°C° 0 mm 1 mps 704 mmHg 85%
08:00 +10°C° 0 mm 1 mps 704 mmHg 80%
09:00 +12°C° 0 mm 1 mps 704 mmHg 75%
10:00 +13°C° 0 mm 1 mps 704 mmHg 69%
11:00 +14°C° 0 mm 1 mps 704 mmHg 68%
12:00 +15°C° 0 mm 1 mps 704 mmHg 68%
13:00 +15°C° 0 mm 1 mps 704 mmHg 67%
14:00 +14°C° 0 mm 1 mps 703 mmHg 72%
15:00 +13°C° 0 mm 1 mps 703 mmHg 77%
16:00 +13°C° 0 mm 1 mps 703 mmHg 82%
17:00 +12°C° 0 mm 1 mps 702 mmHg 85%
18:00 +11°C° 0 mm 1 mps 702 mmHg 88%
19:00 +10°C° 0 mm 1 mps 702 mmHg 91%
20:00 +10°C° 0 mm 1 mps 702 mmHg 91%
21:00 +10°C° 0 mm 1 mps 702 mmHg 91%
22:00 +10°C° 0 mm 1 mps 702 mmHg 91%
23:00 +9°C° 0 mm 1 mps 701 mmHg 92%

Day after tomorrow, 24 October, Saturday

Time Temperature Precipitation Wind Pressure Humidity
00:00 +9°C° 0 mm 1 mps 701 mmHg 92%
01:00 +8°C° 0 mm 1 mps 701 mmHg 93%
02:00 +8°C° 0 mm 1 mps 701 mmHg 92%
03:00 +8°C° 0 mm 1 mps 701 mmHg 92%
04:00 +8°C° 0 mm 1 mps 701 mmHg 92%
05:00 +7°C° 0.1 mm 2 mps 701 mmHg 91%
06:00 +8°C° 0.1 mm 2 mps 701 mmHg 91%
07:00 +8°C° 0.1 mm 2 mps 701 mmHg 90%
08:00 +9°C° 0.4 mm 2 mps 702 mmHg 91%
09:00 +9°C° 0.4 mm 2 mps 702 mmHg 93%
10:00 +9°C° 0.4 mm 2 mps 702 mmHg 94%
11:00 +10°C° 0.1 mm 2 mps 702 mmHg 93%
12:00 +10°C° 0.1 mm 2 mps 703 mmHg 92%
13:00 +12°C° 0.1 mm 2 mps 703 mmHg 91%
14:00 +12°C° 0 mm 1 mps 703 mmHg 92%
15:00 +11°C° 0 mm 1 mps 703 mmHg 92%
16:00 +11°C° 0 mm 1 mps 703 mmHg 93%
17:00 +10°C° 0 mm 1 mps 704 mmHg 93%
18:00 +9°C° 0 mm 1 mps 704 mmHg 94%
19:00 +9°C° 0 mm 1 mps 705 mmHg 94%
20:00 +8°C° 0 mm 1 mps 705 mmHg 94%
21:00 +8°C° 0 mm 1 mps 705 mmHg 94%
22:00 +8°C° 0 mm 1 mps 705 mmHg 94%
23:00 +8°C° 0 mm 1 mps 705 mmHg 93%

, 25 October, Sunday

Time Temperature Precipitation Wind Pressure Humidity
00:00 +8°C° 0 mm 1 mps 705 mmHg 93%
01:00 +7°C° 0 mm 1 mps 705 mmHg 93%
02:00 +7°C° 0 mm 1 mps 705 mmHg 93%
03:00 +7°C° 0 mm 1 mps 705 mmHg 93%
04:00 +7°C° 0 mm 1 mps 705 mmHg 93%
05:00 +7°C° 0 mm 1 mps 705 mmHg 93%
06:00 +7°C° 0 mm 1 mps 705 mmHg 92%
07:00 +7°C° 0 mm 1 mps 705 mmHg 92%
08:00 +9°C° 0 mm 1 mps 705 mmHg 87%
09:00 +11°C° 0 mm 1 mps 705 mmHg 81%
10:00 +13°C° 0 mm 1 mps 706 mmHg 75%
11:00 +13°C° 0 mm 1 mps 705 mmHg 71%
12:00 +13°C° 0 mm 0 mps 705 mmHg 68%
13:00 +14°C° 0 mm 0 mps 705 mmHg 64%
14:00 +13°C° 0 mm 0 mps 704 mmHg 69%
15:00 +12°C° 0 mm 0 mps 704 mmHg 75%
16:00 +10°C° 0 mm 0 mps 703 mmHg 80%
17:00 +10°C° 0 mm 1 mps 703 mmHg 83%
18:00 +10°C° 0 mm 1 mps 703 mmHg 86%
19:00 +9°C° 0 mm 1 mps 703 mmHg 89%
20:00 +8°C° 0 mm 1 mps 703 mmHg 89%
21:00 +8°C° 0 mm 1 mps 703 mmHg 90%
22:00 +8°C° 0 mm 1 mps 702 mmHg 90%
23:00 +7°C° 0 mm 1 mps 702 mmHg 90%

25 October, Sunday

Time Temperature Precipitation Wind Pressure Humidity
00:00 +8°C° 0 mm 1 mps 705 mmHg 93%
01:00 +7°C° 0 mm 1 mps 705 mmHg 93%
02:00 +7°C° 0 mm 1 mps 705 mmHg 93%
03:00 +7°C° 0 mm 1 mps 705 mmHg 93%
04:00 +7°C° 0 mm 1 mps 705 mmHg 93%
05:00 +7°C° 0 mm 1 mps 705 mmHg 93%
06:00 +7°C° 0 mm 1 mps 705 mmHg 92%
07:00 +7°C° 0 mm 1 mps 705 mmHg 92%
08:00 +9°C° 0 mm 1 mps 705 mmHg 87%
09:00 +11°C° 0 mm 1 mps 705 mmHg 81%
10:00 +13°C° 0 mm 1 mps 706 mmHg 75%
11:00 +13°C° 0 mm 1 mps 705 mmHg 71%
12:00 +13°C° 0 mm 0 mps 705 mmHg 68%
13:00 +14°C° 0 mm 0 mps 705 mmHg 64%
14:00 +13°C° 0 mm 0 mps 704 mmHg 69%
15:00 +12°C° 0 mm 0 mps 704 mmHg 75%
16:00 +10°C° 0 mm 0 mps 703 mmHg 80%
17:00 +10°C° 0 mm 1 mps 703 mmHg 83%
18:00 +10°C° 0 mm 1 mps 703 mmHg 86%
19:00 +9°C° 0 mm 1 mps 703 mmHg 89%
20:00 +8°C° 0 mm 1 mps 703 mmHg 89%
21:00 +8°C° 0 mm 1 mps 703 mmHg 90%
22:00 +8°C° 0 mm 1 mps 702 mmHg 90%
23:00 +7°C° 0 mm 1 mps 702 mmHg 90%

26 October, Monday

Time Temperature Precipitation Wind Pressure Humidity
00:00 +7°C° 0 mm 1 mps 702 mmHg 89%
01:00 +7°C° 0 mm 1 mps 701 mmHg 89%
02:00 +7°C° 0 mm 1 mps 701 mmHg 88%
03:00 +7°C° 0 mm 1 mps 701 mmHg 88%
04:00 +7°C° 0 mm 1 mps 700 mmHg 87%
05:00 +7°C° 0 mm 1 mps 700 mmHg 87%
06:00 +7°C° 0 mm 1 mps 700 mmHg 87%
07:00 +7°C° 0 mm 1 mps 700 mmHg 87%
08:00 +9°C° 0 mm 1 mps 700 mmHg 84%
09:00 +11°C° 0 mm 1 mps 700 mmHg 80%
10:00 +13°C° 0 mm 1 mps 700 mmHg 76%
11:00 +13°C° 0 mm 1 mps 700 mmHg 74%
12:00 +14°C° 0 mm 2 mps 699 mmHg 72%
13:00 +14°C° 0 mm 2 mps 699 mmHg 70%
14:00 +13°C° 0 mm 2 mps 699 mmHg 75%
15:00 +12°C° 0 mm 2 mps 698 mmHg 80%
16:00 +10°C° 0 mm 2 mps 698 mmHg 85%
17:00 +9°C° 0 mm 2 mps 698 mmHg 87%
18:00 +8°C° 0 mm 2 mps 698 mmHg 90%
19:00 +8°C° 0 mm 2 mps 698 mmHg 92%
20:00 +7°C° 0 mm 2 mps 698 mmHg 93%
21:00 +8°C° 0 mm 1 mps 698 mmHg 93%
22:00 +8°C° 0 mm 1 mps 698 mmHg 93%
23:00 +7°C° 0 mm 2 mps 698 mmHg 93%

27 October, Tuesday

Time Temperature Precipitation Wind Pressure Humidity
00:00 +7°C° 0 mm 2 mps 698 mmHg 93%
01:00 +7°C° 0 mm 2 mps 698 mmHg 92%
02:00 +7°C° 0 mm 2 mps 698 mmHg 93%
03:00 +7°C° 0 mm 2 mps 698 mmHg 93%
04:00 +7°C° 0 mm 2 mps 698 mmHg 93%
05:00 +7°C° 0 mm 2 mps 699 mmHg 93%
06:00 +7°C° 0 mm 2 mps 699 mmHg 93%
07:00 +8°C° 0 mm 2 mps 699 mmHg 93%
08:00 +9°C° 0 mm 2 mps 700 mmHg 87%
09:00 +12°C° 0 mm 2 mps 700 mmHg 82%
10:00 +14°C° 0 mm 2 mps 700 mmHg 76%
11:00 +15°C° 0 mm 2 mps 701 mmHg 72%
12:00 +16°C° 0 mm 2 mps 701 mmHg 67%
13:00 +16°C° 0 mm 2 mps 701 mmHg 63%
14:00 +15°C° 0 mm 2 mps 701 mmHg 69%
15:00 +14°C° 0 mm 1 mps 700 mmHg 74%
16:00 +12°C° 0 mm 1 mps 700 mmHg 80%
17:00 +11°C° 0 mm 1 mps 700 mmHg 82%
18:00 +11°C° 0 mm 1 mps 700 mmHg 85%
19:00 +10°C° 0 mm 1 mps 700 mmHg 88%
20:00 +9°C° 0 mm 1 mps 700 mmHg 88%
21:00 +9°C° 0 mm 1 mps 701 mmHg 88%
22:00 +9°C° 0 mm 1 mps 701 mmHg 88%
23:00 +9°C° 0 mm 1 mps 701 mmHg 88%
Show more